Regional Weather Roundup
Issued by NWS Little Rock, AR

Home | Current Version | Previous Version | Text Only | Print | Product List | Glossary On
Versions: 1 2 3 4 5 6 7 8 9 10 11 12 13 14 15 16 17 18 19 20 21 22 23 24 25 26 27 28 29 30 31 32 33 34 35 36 37 38 39 40 41 42 43 44 45 46 47
000
ASUS44 KLZK 031405
RWRLZK

WEATHER ROUNDUP FOR ARKANSAS
NATIONAL WEATHER SERVICE LITTLE ROCK AR
900 AM CDT WED JUN 03 2015

NOTE: "FAIR" INDICATES FEW OR NO CLOUDS BELOW 12,000 FEET WITH NO
SIGNIFICANT WEATHER AND/OR OBSTRUCTIONS TO VISIBILITY.

ARZ001-003-010-029-031500-
NORTHWEST ARKANSAS

CITY           SKY/WX    TMP DP  RH WIND       PRES   REMARKS
FAYETTEVILLE   SUNNY     70  65  84 S9        30.01R
FORT SMITH     MOSUNNY   72  64  76 E10       29.99S
HARRISON       CLOUDY    66  62  87 SE9       30.03R
BENTONVILLE    SUNNY     72  63  73 S7        30.01S
ROGERS         SUNNY     71  65  81 S7        30.01S
SILOAM SPGS    SUNNY     72  63  73 S9        30.01S
HIGHFILL       SUNNY     71  65  81 S9        30.00S
SPRINGDALE     SUNNY     70  64  83 SE8       30.03R
$$

ARZ004-005-016-031500-
NORTH CENTRAL ARKANSAS

CITY           SKY/WX    TMP DP  RH WIND       PRES   REMARKS
BATESVILLE     CLOUDY    64  59  82 CALM      30.05R
FLIPPIN        SUNNY     64  59  82 E6        30.02S
MTN HOME       CLOUDY    64  59  83 S8        30.03S
$$

ARZ040-041-031500-
WEST CENTRAL ARKANSAS

CITY           SKY/WX    TMP DP  RH WIND       PRES   REMARKS
MENA           MOSUNNY   68  64  88 CALM      30.03S
MOUNT IDA      SUNNY     71  63  75 VRB3      30.01R
$$

ARZ009-017-025-026-028-031500-
NORTHEAST ARKANSAS

CITY           SKY/WX    TMP DP  RH WIND       PRES   REMARKS
CORNING          N/A     64  64 100 E5        30.05F FOG
JONESBORO      MOSUNNY   65  61  87 E6        30.05R
NEWPORT        CLOUDY    66  63  90 E3        30.06S
WALNUT RIDGE   MOSUNNY   63  59  88 CALM      30.05S
BLYTHEVILLE    PTSUNNY   66  63  90 CALM      30.05R
NW BLYTHEVILLE MOSUNNY   66  61  82 CALM      30.04F
$$

ARZ022-023-033-042-044-031500-
CENTRAL ARKANSAS

CITY           SKY/WX    TMP DP  RH WIND       PRES   REMARKS
LITTLE ROCK    MOSUNNY   70  61  73 E8        30.03S
N LITTLE ROCK  MOSUNNY   69  64  83 SE8       30.03S
JACKSONVILLE   CLOUDY    68  62  80 VRB5      30.03S
SEARCY         CLOUDY    66  62  87 E3        30.06R
HOT SPRINGS    SUNNY     69  61  75 SE6       30.03S
RUSSELLVILLE   SUNNY     68  62  81 E6        30.02F
CLINTON        CLOUDY    66  61  82 CALM      30.06S HAZE
$$

ARZ036-031500-
EAST ARKANSAS

CITY           SKY/WX    TMP DP  RH WIND       PRES   REMARKS
WEST MEMPHIS   MOSUNNY   67  63  87 E6        30.03S
$$

ARZ050-053-066-070-073-031500-
SOUTHWEST ARKANSAS

CITY           SKY/WX    TMP DP  RH WIND       PRES   REMARKS
ARKADELPHIA    FAIR      73  65  76 VRB5      30.03S
CAMDEN         SUNNY     72  59  64 NE6       30.02S
TEXARKANA      SUNNY     73  65  75 SE9       30.01R
EL DORADO      SUNNY     71  62  73 SE7       30.02S
DE QUEEN       SUNNY     71  65  81 E6        29.99S
$$

ARZ056-057-069-031500-
SOUTHEAST ARKANSAS

CITY           SKY/WX    TMP DP  RH WIND       PRES   REMARKS
PINE BLUFF     CLOUDY    68  63  84 E7        30.04R
STUTTGART      CLOUDY    66  61  82 E6        30.04S
MONTICELLO     CLOUDY    71  64  78 E3        30.02S

$$




USA.gov is the U.S. government's official web portal to all federal, state and local government web resources and services.